• In Uzbekistan
  • List of Countries
  • For 7 days
  • Water Temperature
  • Satellite Maps
  • Weather Map
  • Weather Widgets
  • user-avatar
    Login

    Hourly Weather Wiktoria

    Today, 17 November, Friday

    Time Temperature Precipitation Wind Pressure Humidity
    00:00 +16°C° 0.1 mm 1 mps 747 mmHg 90%
    01:00 +16°C° 0.1 mm 1 mps 748 mmHg 91%
    02:00 +15°C° 0 mm 1 mps 748 mmHg 91%
    03:00 +15°C° 0 mm 1 mps 748 mmHg 92%
    04:00 +15°C° 0 mm 1 mps 748 mmHg 94%
    05:00 +15°C° 0 mm 2 mps 748 mmHg 92%
    06:00 +16°C° 0 mm 2 mps 748 mmHg 90%
    07:00 +17°C° 0 mm 3 mps 748 mmHg 88%
    08:00 +19°C° 0.3 mm 3 mps 748 mmHg 80%
    09:00 +20°C° 0.3 mm 3 mps 748 mmHg 72%
    10:00 +22°C° 0 mm 4 mps 749 mmHg 66%
    11:00 +23°C° 0.3 mm 4 mps 748 mmHg 61%
    12:00 +23°C° 0.3 mm 4 mps 748 mmHg 56%
    13:00 +25°C° 0.3 mm 4 mps 748 mmHg 51%
    14:00 +25°C° 0.1 mm 3 mps 748 mmHg 51%
    15:00 +25°C° 0.1 mm 3 mps 747 mmHg 51%
    16:00 +25°C° 0 mm 2 mps 747 mmHg 50%
    17:00 +24°C° 0.1 mm 2 mps 747 mmHg 56%
    18:00 +21°C° 0.1 mm 2 mps 748 mmHg 61%
    19:00 +20°C° 0.1 mm 2 mps 748 mmHg 67%
    20:00 +20°C° 0.1 mm 1 mps 748 mmHg 69%
    21:00 +19°C° 0.1 mm 1 mps 748 mmHg 71%
    22:00 +18°C° 0 mm 1 mps 749 mmHg 67%
    23:00 +18°C° 0 mm 1 mps 749 mmHg 69%

    Tomorrow, 18 November, Saturday

    Time Temperature Precipitation Wind Pressure Humidity
    00:00 +16°C° 0 mm 1 mps 749 mmHg 71%
    01:00 +16°C° 0 mm 1 mps 749 mmHg 73%
    02:00 +15°C° 0 mm 2 mps 749 mmHg 77%
    03:00 +15°C° 0 mm 2 mps 749 mmHg 82%
    04:00 +14°C° 0 mm 3 mps 749 mmHg 87%
    05:00 +16°C° 0 mm 3 mps 749 mmHg 84%
    06:00 +17°C° 0 mm 4 mps 750 mmHg 81%
    07:00 +19°C° 0 mm 5 mps 750 mmHg 78%
    08:00 +21°C° 0 mm 5 mps 750 mmHg 72%
    09:00 +22°C° 0 mm 5 mps 750 mmHg 66%
    10:00 +25°C° 0 mm 5 mps 750 mmHg 59%
    11:00 +26°C° 0.3 mm 4 mps 750 mmHg 58%
    12:00 +26°C° 0.3 mm 4 mps 750 mmHg 56%
    13:00 +27°C° 0.3 mm 3 mps 749 mmHg 55%
    14:00 +26°C° 0.8 mm 3 mps 749 mmHg 61%
    15:00 +25°C° 0.8 mm 3 mps 749 mmHg 67%
    16:00 +22°C° 0.8 mm 3 mps 749 mmHg 73%
    17:00 +22°C° 0.3 mm 3 mps 749 mmHg 76%
    18:00 +21°C° 0.3 mm 3 mps 750 mmHg 79%
    19:00 +20°C° 0.3 mm 3 mps 750 mmHg 82%
    20:00 +19°C° 0 mm 3 mps 750 mmHg 85%
    21:00 +18°C° 0 mm 3 mps 751 mmHg 87%
    22:00 +17°C° 0 mm 3 mps 751 mmHg 90%
    23:00 +17°C° 0 mm 3 mps 751 mmHg 90%

    Day after tomorrow, 19 November, Sunday

    Time Temperature Precipitation Wind Pressure Humidity
    00:00 +17°C° 0 mm 3 mps 752 mmHg 91%
    01:00 +16°C° 0 mm 2 mps 752 mmHg 91%
    02:00 +16°C° 0 mm 3 mps 752 mmHg 89%
    03:00 +16°C° 0 mm 3 mps 752 mmHg 88%
    04:00 +16°C° 0 mm 3 mps 752 mmHg 86%
    05:00 +17°C° 0 mm 4 mps 753 mmHg 81%
    06:00 +17°C° 0 mm 5 mps 753 mmHg 76%
    07:00 +19°C° 0 mm 6 mps 753 mmHg 71%
    08:00 +21°C° 0 mm 6 mps 753 mmHg 65%
    09:00 +23°C° 0 mm 6 mps 753 mmHg 60%
    10:00 +24°C° 0 mm 6 mps 753 mmHg 55%
    11:00 +26°C° 0 mm 5 mps 753 mmHg 52%
    12:00 +28°C° 0 mm 5 mps 753 mmHg 49%
    13:00 +29°C° 0 mm 5 mps 752 mmHg 46%
    14:00 +29°C° 0 mm 4 mps 752 mmHg 46%
    15:00 +29°C° 0 mm 3 mps 752 mmHg 46%
    16:00 +29°C° 0 mm 3 mps 752 mmHg 46%
    17:00 +27°C° 0 mm 2 mps 752 mmHg 51%
    18:00 +26°C° 0 mm 2 mps 752 mmHg 55%
    19:00 +24°C° 0 mm 1 mps 752 mmHg 60%
    20:00 +23°C° 0 mm 1 mps 753 mmHg 62%
    21:00 +22°C° 0 mm 1 mps 753 mmHg 65%
    22:00 +20°C° 0 mm 2 mps 754 mmHg 67%
    23:00 +20°C° 0 mm 2 mps 754 mmHg 68%

    20 November, Monday

    Time Temperature Precipitation Wind Pressure Humidity
    00:00 +19°C° 0 mm 3 mps 754 mmHg 68%
    01:00 +19°C° 0 mm 3 mps 754 mmHg 69%
    02:00 +18°C° 0 mm 3 mps 754 mmHg 70%
    03:00 +18°C° 0 mm 3 mps 754 mmHg 72%
    04:00 +17°C° 0 mm 3 mps 754 mmHg 74%
    05:00 +18°C° 0 mm 4 mps 755 mmHg 72%
    06:00 +18°C° 0 mm 4 mps 755 mmHg 70%
    07:00 +19°C° 0 mm 4 mps 756 mmHg 69%
    08:00 +21°C° 0 mm 4 mps 756 mmHg 62%
    09:00 +23°C° 0 mm 4 mps 756 mmHg 56%
    10:00 +26°C° 0 mm 3 mps 756 mmHg 49%
    11:00 +27°C° 0 mm 3 mps 755 mmHg 46%
    12:00 +28°C° 0 mm 3 mps 755 mmHg 42%
    13:00 +30°C° 0 mm 3 mps 754 mmHg 39%
    14:00 +30°C° 0 mm 3 mps 754 mmHg 38%
    15:00 +30°C° 0 mm 3 mps 753 mmHg 37%
    16:00 +30°C° 0 mm 3 mps 753 mmHg 37%
    17:00 +29°C° 0 mm 2 mps 753 mmHg 42%
    18:00 +27°C° 0 mm 2 mps 753 mmHg 47%
    19:00 +25°C° 0 mm 1 mps 753 mmHg 52%
    20:00 +24°C° 0 mm 1 mps 753 mmHg 54%
    21:00 +23°C° 0 mm 1 mps 754 mmHg 56%
    22:00 +22°C° 0 mm 1 mps 754 mmHg 57%
    23:00 +20°C° 0 mm 2 mps 754 mmHg 59%

    21 November, Tuesday

    Time Temperature Precipitation Wind Pressure Humidity
    00:00 +19°C° 0 mm 2 mps 754 mmHg 61%
    01:00 +19°C° 0 mm 3 mps 754 mmHg 63%
    02:00 +18°C° 0 mm 3 mps 754 mmHg 67%
    03:00 +17°C° 0 mm 3 mps 754 mmHg 71%
    04:00 +17°C° 0 mm 3 mps 754 mmHg 75%
    05:00 +18°C° 0 mm 4 mps 754 mmHg 73%
    06:00 +18°C° 0 mm 4 mps 754 mmHg 71%
    07:00 +19°C° 0 mm 4 mps 755 mmHg 69%
    08:00 +21°C° 0 mm 4 mps 754 mmHg 62%
    09:00 +23°C° 0 mm 4 mps 754 mmHg 55%
    10:00 +26°C° 0 mm 4 mps 754 mmHg 49%
    11:00 +28°C° 0 mm 3 mps 754 mmHg 45%
    12:00 +29°C° 0 mm 3 mps 753 mmHg 41%
    13:00 +30°C° 0 mm 2 mps 753 mmHg 37%
    14:00 +31°C° 0 mm 2 mps 752 mmHg 36%
    15:00 +31°C° 0 mm 2 mps 752 mmHg 35%
    16:00 +31°C° 0 mm 2 mps 751 mmHg 33%
    17:00 +29°C° 0 mm 2 mps 751 mmHg 39%
    18:00 +27°C° 0 mm 2 mps 751 mmHg 45%
    19:00 +26°C° 0 mm 1 mps 751 mmHg 50%
    20:00 +25°C° 0 mm 2 mps 751 mmHg 53%
    21:00 +24°C° 0 mm 2 mps 751 mmHg 56%
    22:00 +21°C° 0 mm 2 mps 752 mmHg 59%
    23:00 +21°C° 0 mm 2 mps 751 mmHg 61%

    22 November, Wednesday

    Time Temperature Precipitation Wind Pressure Humidity
    00:00 +20°C° 0 mm 2 mps 751 mmHg 64%
    01:00 +19°C° 0 mm 3 mps 751 mmHg 67%
    02:00 +19°C° 0 mm 3 mps 751 mmHg 68%
    03:00 +18°C° 0 mm 3 mps 751 mmHg 69%
    04:00 +17°C° 0 mm 3 mps 751 mmHg 70%
    05:00 +18°C° 0 mm 4 mps 751 mmHg 67%
    06:00 +19°C° 0 mm 4 mps 752 mmHg 65%
    07:00 +20°C° 0 mm 5 mps 752 mmHg 62%
    08:00 +22°C° 0 mm 4 mps 752 mmHg 56%
    09:00 +25°C° 0 mm 4 mps 752 mmHg 50%
    10:00 +27°C° 0 mm 4 mps 752 mmHg 44%
    11:00 +28°C° 0 mm 3 mps 751 mmHg 41%
    12:00 +29°C° 0 mm 3 mps 750 mmHg 37%
    13:00 +31°C° 0 mm 2 mps 750 mmHg 34%
    14:00 +31°C° 0 mm 2 mps 749 mmHg 33%
    15:00 +32°C° 0 mm 2 mps 749 mmHg 31%
    16:00 +32°C° 0 mm 1 mps 748 mmHg 30%
    17:00 +30°C° 0 mm 1 mps 749 mmHg 35%
    18:00 +28°C° 0 mm 1 mps 749 mmHg 40%
    19:00 +26°C° 0 mm 1 mps 749 mmHg 45%
    20:00 +25°C° 0.2 mm 2 mps 749 mmHg 49%
    21:00 +23°C° 0.2 mm 2 mps 749 mmHg 54%
    22:00 +21°C° 0.2 mm 2 mps 750 mmHg 59%
    23:00 +21°C° 0 mm 2 mps 750 mmHg 60%
    Show more